Humidity-temperature Sensor

Selected Measurement Type: Relative Humidity

 
Relative Humidity [%]     6 entries per hour
Showing data from 9/30/2020 (00:00:00 Z) to 9/27/2020 (00:01:00 Z)
Previous Next [ Day | 3-Days | 7-Days ]
First Last
Prev [ Day | 3-Days | 7-Days ] Next
First Last

Start Time:     :
End Time:     :     
Time (in GMT) :00 :50 :40 :30 :20 :10
Previous Next [ Day | 3-Days | 7-Days ]
First Last
Prev [ Day | 3-Days | 7-Days ] Next
First Last


123 => good data
MM => data is determined as missing
-- => data not received/configured
Back to Top Back to Top
9/30/2020 00:00 to 23:10 90.48 90.81 91.05 91.82 91.88 91.03
9/29/2020 23:00 to 22:10 91.61 91.61 91.20 90.81 90.27 90.50
9/29/2020 22:00 to 21:10 90.66 91.26 92.85 94.40 93.88 91.82
9/29/2020 21:00 to 20:10 92.02 91.82 91.63 91.84 91.07 92.13
9/29/2020 20:00 to 19:10 92.46 93.59 94.54 92.00 90.99 91.67
9/29/2020 19:00 to 18:10 92.95 93.32 93.34 93.01 92.75 92.99
9/29/2020 18:00 to 17:10 92.54 90.81 92.48 92.60 92.56 91.36
9/29/2020 17:00 to 16:10 91.78 92.52 93.74 93.06 93.26 94.83
9/29/2020 16:00 to 15:10 94.97 95.22 94.58 94.67 96.01 95.16
9/29/2020 15:00 to 14:10 96.52 97.22 98.01 98.05 97.78 98.17
9/29/2020 14:00 to 13:10 98.54 97.57 95.68 94.34 94.27 93.90
9/29/2020 13:00 to 12:10 93.84 94.44 94.79 94.93 94.19 94.23
9/29/2020 12:00 to 11:10 94.42 94.09 94.21 94.69 96.15 95.49
9/29/2020 11:00 to 10:10 95.28 94.31 93.57 93.22 94.05 96.89
9/29/2020 10:00 to 9:10 99.16 99.08 99.43 97.99 95.18 94.95
9/29/2020 09:00 to 8:10 95.02 94.56 93.84 92.62 91.84 92.35
9/29/2020 08:00 to 7:10 92.02 91.59 92.25 93.49 95.94 96.34
9/29/2020 07:00 to 6:10 95.37 92.37 94.50 94.17 94.11 93.82
9/29/2020 06:00 to 5:10 92.52 91.34 90.77 90.54 90.93 91.01
9/29/2020 05:00 to 4:10 90.44 90.64 90.91 91.74 92.13 91.82
9/29/2020 04:00 to 3:10 92.15 92.13 91.84 91.36 91.30 91.78
9/29/2020 03:00 to 2:10 92.81 94.21 95.82 97.27 97.37 97.95
9/29/2020 02:00 to 1:10 98.50 98.94 98.87 99.29 99.39 99.76
9/29/2020 01:00 to 0:10 100.26 99.29 98.19 97.84 97.39 97.24
9/29/2020 00:00 to 23:10 96.63 96.23 95.72 95.55 95.43 95.18
9/28/2020 23:00 to 22:10 95.14 95.10 95.43 95.99 96.67 96.96
9/28/2020 22:00 to 21:10 97.00 97.04 97.10 97.10 97.14 97.16
9/28/2020 21:00 to 20:10 97.27 97.35 97.62 97.80 98.34 98.44
9/28/2020 20:00 to 19:10 99.04 98.65 97.70 97.12 96.89 97.12
9/28/2020 19:00 to 18:10 97.29 97.60 98.17 98.52 99.08 99.97
9/28/2020 18:00 to 17:10 100.24 100.28 100.13 100.20 100.24 99.76
9/28/2020 17:00 to 16:10 99.51 99.74 99.64 99.51 99.45 98.90
9/28/2020 16:00 to 15:10 97.86 97.22 96.79 96.46 96.32 95.94
9/28/2020 15:00 to 14:10 96.30 95.94 95.72 95.08 95.04 94.69
9/28/2020 14:00 to 13:10 93.37 93.12 92.91 92.77 93.20 93.49
9/28/2020 13:00 to 12:10 94.34 95.12 94.97 94.34 93.82 94.62
9/28/2020 12:00 to 11:10 95.59 95.78 96.50 96.73 96.91 96.75
9/28/2020 11:00 to 10:10 96.34 96.69 96.30 96.19 96.13 97.04
9/28/2020 10:00 to 9:10 97.51 97.95 98.09 98.15 98.21 98.19
9/28/2020 09:00 to 8:10 97.88 97.84 97.82 97.57 97.51 97.39
9/28/2020 08:00 to 7:10 97.06 96.85 96.65 96.15 95.86 95.57
9/28/2020 07:00 to 6:10 95.37 95.22 95.74 95.80 95.57 95.66
9/28/2020 06:00 to 5:10 95.41 95.90 96.56 96.21 96.32 95.97
9/28/2020 05:00 to 4:10 95.80 95.18 95.49 96.19 96.71 96.79
9/28/2020 04:00 to 3:10 96.71 96.73 96.79 96.58 96.52 96.01
9/28/2020 03:00 to 2:10 95.90 95.39 95.06 94.93 94.89 95.47
9/28/2020 02:00 to 1:10 96.09 96.73 97.33 98.34 98.59 98.44
9/28/2020 01:00 to 0:10 98.40 98.11 98.11 98.07 98.05 97.88
9/28/2020 00:00 to 23:10 97.66 97.45 97.47 97.47 97.27 97.06
9/27/2020 23:00 to 22:10 96.81 96.17 95.80 95.61 95.59 95.35
9/27/2020 22:00 to 21:10 95.45 95.59 95.53 95.57 95.72 95.59
9/27/2020 21:00 to 20:10 95.39 95.61 95.66 95.64 95.57 95.72
9/27/2020 20:00 to 19:10 95.94 96.05 96.15 96.65 96.56 96.91
9/27/2020 19:00 to 18:10 96.91 97.29 97.31 97.29 97.45 97.39
9/27/2020 18:00 to 17:10 97.47 97.39 97.43 97.31 97.22 97.14
9/27/2020 17:00 to 16:10 97.12 97.24 97.35 97.68 97.70 97.57
9/27/2020 16:00 to 15:10 97.80 97.74 97.60 97.70 97.78 97.70
9/27/2020 15:00 to 14:10 97.55 97.60 97.60 97.76 97.68 97.60
9/27/2020 14:00 to 13:10 97.53 97.45 97.51 97.51 97.53 97.55
9/27/2020 13:00 to 12:10 97.86 98.17 98.50 98.94 99.27 99.54
9/27/2020 12:00 to 11:10 99.56 99.62 99.58 99.49 99.49 99.49
9/27/2020 11:00 to 10:10 99.45 99.43 99.41 99.31 99.35 99.37
9/27/2020 10:00 to 9:10 99.37 99.37 99.31 99.25 99.16 99.18
9/27/2020 09:00 to 8:10 99.02 98.85 98.77 98.92 98.98 98.96
9/27/2020 08:00 to 7:10 98.92 99.04 99.41 99.87 99.99 100.18
9/27/2020 07:00 to 6:10 100.11 100.03 99.89 99.78 99.66 99.47
9/27/2020 06:00 to 5:10 99.41 99.23 99.06 98.92 98.67 98.50
9/27/2020 05:00 to 4:10 98.28 98.09 97.97 97.76 97.68 97.62
9/27/2020 04:00 to 3:10 97.72 97.78 97.88 97.91 97.91 97.72
9/27/2020 03:00 to 2:10 97.57 97.29 97.12 97.02 97.31 97.33
9/27/2020 02:00 to 1:10 97.41 97.24 96.94 96.69 96.42 96.38
9/27/2020 01:00 to 0:10 96.09 95.61 95.14 94.56 94.77 95.70